#datint,netname,site,siteID,timestamp,IntT,BattV,AirT2,AirT,AirT_Avg,AirT_Max,AirT_Min,RH_Avg,RH_Max,RH_Min,EA_Avg,Td_Avg,Td_Max,Td_Min,WindS_Smp,WindS_Avg,WindD_Avg,WindD_SD,WindS_Max,ETo,ETr,SoilT4,SoilT8,SoilVWC8,SolarW_Avg,wetstate_Avg,wetT_Avg,Precip_accum,Precip_WPG,Precip_TB
15min,AgWx,beryljct,423,01MAR2020:00:00:00,45.7,12.88,45.5,45.2,45.4,45.7,45.1,43,44,43,0.445,24.4,24.6,24.3,14.27,13.0,199,6.8,16.2,0.00044,0.00052,37.2,37.2,21,0,.,.,9.36,0.00,0.00
15min,AgWx,beryljct,423,01MAR2020:00:15:00,45.2,12.87,44.4,44.3,44.7,45.3,44.2,44,45,43,0.446,24.3,24.5,24.2,12.19,12.7,197,4.9,16.1,0.00042,0.00050,37.2,37.2,21,0,.,.,9.36,0.00,0.00
15min,AgWx,beryljct,423,01MAR2020:00:30:00,44.6,12.87,44.4,43.8,44.0,44.3,43.7,46,46,45,0.444,24.3,24.5,24.2,13.61,12.8,198,6.0,15.8,0.00040,0.00047,37.1,37.2,21,0,.,.,9.36,0.00,0.00
15min,AgWx,beryljct,423,01MAR2020:00:45:00,44.1,12.86,43.0,43.0,43.6,44.0,43.0,46,47,45,0.442,24.2,24.4,24.0,10.98,12.3,200,5.8,16.1,0.00039,0.00046,37.1,37.2,21,0,.,.,9.36,0.00,0.00
15min,AgWx,beryljct,423,01MAR2020:01:00:00,43.5,12.86,41.9,42.3,42.6,43.0,42.2,48,49,47,0.443,24.2,24.3,24.1,7.541,10.6,201,5.8,14.0,0.00032,0.00040,37.1,37.2,21,0,.,.,9.36,0.00,0.00
15min,AgWx,beryljct,423,01MAR2020:01:15:00,42.9,12.85,42.8,42.4,42.1,42.4,41.8,49,50,48,0.443,24.3,24.4,24.2,9.03,9.2,204,5.2,11.5,0.00028,0.00035,37.0,37.2,21,0,.,.,9.36,0.00,0.00
15min,AgWx,beryljct,423,01MAR2020:01:30:00,42.6,12.85,42.4,42.1,42.2,42.5,42.0,48,49,48,0.441,24.2,24.3,24.0,9.71,9.5,199,5.6,12.0,0.00029,0.00036,36.9,37.2,21,0,.,.,9.36,0.00,0.00
15min,AgWx,beryljct,423,01MAR2020:01:45:00,42.0,12.83,40.0,39.8,40.7,42.1,39.8,52,54,48,0.449,24.2,24.6,24.0,9.58,9.4,188,5.3,10.9,0.00025,0.00031,36.9,37.2,21,0,.,.,9.36,0.00,0.00
15min,AgWx,beryljct,423,01MAR2020:02:00:00,41.4,12.82,39.8,40.1,40.0,40.2,39.7,54,54,53,0.445,24.5,24.7,24.3,8.99,9.0,188,5.4,11.1,0.00023,0.00028,36.8,37.2,21,0,.,.,9.36,0.00,0.00
15min,AgWx,beryljct,423,01MAR2020:02:15:00,40.6,12.81,38.2,38.4,39.2,40.0,38.4,54,56,53,0.439,24.1,24.3,23.9,9.05,9.5,191,4.1,10.9,0.00022,0.00028,36.8,37.2,21,0,.,.,9.36,0.00,0.00
15min,AgWx,beryljct,423,01MAR2020:02:30:00,39.6,12.82,36.0,36.1,37.2,38.4,36.1,59,61,56,0.437,24.0,24.1,23.8,8.75,9.0,186,4.4,10.0,0.00017,0.00022,36.7,37.2,21,0,.,.,9.36,0.00,0.00
15min,AgWx,beryljct,423,01MAR2020:02:45:00,38.5,12.81,37.3,36.8,36.9,37.4,36.0,59,61,58,0.442,24.1,24.3,23.8,7.914,8.5,182,5.1,9.8,0.00016,0.00020,36.7,37.2,21,0,.,.,9.36,0.00,0.00
15min,AgWx,beryljct,423,01MAR2020:03:00:00,37.7,12.8,38.7,38.7,37.5,38.7,36.7,58,60,55,0.435,24.0,24.2,23.6,7.541,7.1,173,10,8.6,0.00014,0.00019,36.6,37.2,21,0,.,.,9.36,0.00,0.00
15min,AgWx,beryljct,423,01MAR2020:03:15:00,37.7,12.8,37.2,37.4,38.3,39.0,37.4,55,57,54,0.433,23.7,23.8,23.5,7.037,7.4,161,4.8,9.1,0.00017,0.00022,36.5,37.2,21,0,.,.,9.36,0.00,0.00
15min,AgWx,beryljct,423,01MAR2020:03:30:00,37.3,12.78,33.4,34.6,36.6,37.4,34.6,59,63,57,0.426,23.5,23.7,23.0,3.683,5.6,166,13,8.2,0.00009,0.00013,36.5,37.1,21,0,.,.,9.36,0.00,0.00
15min,AgWx,beryljct,423,01MAR2020:03:45:00,36.2,12.78,29.8,32.6,32.9,34.4,31.8,66,68,63,0.412,22.9,23.2,22.1,2.762,3.4,181,13,4.6,-0.00002,-0.00001,36.4,37.1,21,0,.,.,9.36,0.00,0.00
15min,AgWx,beryljct,423,01MAR2020:04:00:00,34.8,12.76,36.8,36.8,34.4,36.9,31.5,63,69,56,0.416,23.1,23.8,21.6,4.472,4.2,160,7.6,5.6,0.00002,0.00004,36.3,37.1,21,0,.,.,9.37,0.00,0.00
15min,AgWx,beryljct,423,01MAR2020:04:15:00,34.4,12.76,34.2,33.8,34.8,36.8,32.8,61,66,56,0.415,22.6,23.3,21.7,2.696,3.3,170,20,6.0,-0.00001,0.00001,36.2,37.1,21,0,.,.,9.37,0.00,0.00
15min,AgWx,beryljct,423,01MAR2020:04:30:00,33.7,12.76,35.7,33.8,34.2,35.1,33.7,62,63,60,0.401,22.4,22.7,21.7,2.499,2.8,198,11,4.6,-0.00004,-0.00003,36.2,37.1,21,0,.,.,9.37,0.00,0.00
15min,AgWx,beryljct,423,01MAR2020:04:45:00,33.6,12.75,38.0,37.0,36.3,37.8,34.0,56,62,53,0.398,22.3,22.9,21.5,2.631,2.6,226,13,3.9,-0.00004,-0.00003,36.1,37.1,21,0,.,.,9.37,0.00,0.00
15min,AgWx,beryljct,423,01MAR2020:05:00:00,33.4,12.75,36.3,34.4,35.4,38.1,33.5,58,62,52,0.402,21.8,22.7,20.9,3.332,3.2,212,17,4.4,-0.00000,0.00002,36.1,37.1,21,0,.,.,9.37,0.00,0.00
15min,AgWx,beryljct,423,01MAR2020:05:15:00,33.3,12.74,37.8,38.0,35.6,38.0,33.4,58,61,52,0.406,22.2,22.5,21.1,5.656,5.2,202,14,9.7,0.00008,0.00011,36.0,37.0,21,0,.,.,9.37,0.00,0.00
15min,AgWx,beryljct,423,01MAR2020:05:30:00,33.9,12.73,39.0,37.9,37.4,38.3,36.4,52,54,50,0.389,21.6,21.9,21.1,4.516,4.8,222,18,8.6,0.00009,0.00014,36.0,37.0,21,0,.,.,9.37,0.00,0.00
15min,AgWx,beryljct,423,01MAR2020:05:45:00,34.2,12.74,38.8,37.9,38.1,39.7,36.4,49,52,46,0.380,20.7,21.3,20.0,5.042,3.2,222,24,5.6,0.00003,0.00006,35.9,37.0,21,0,.,.,9.37,0.00,0.00
15min,AgWx,beryljct,423,01MAR2020:06:00:00,34.2,12.72,38.5,38.7,37.8,39.1,36.7,50,53,46,0.374,20.6,21.4,20.0,4.823,4.5,202,8.7,6.3,0.00009,0.00014,35.8,37.0,21,0,.,.,9.36,0.00,0.00
15min,AgWx,beryljct,423,01MAR2020:06:15:00,34.4,12.72,37.3,37.7,37.4,38.7,35.7,50,54,47,0.380,20.3,21.0,20.0,6.379,6.1,183,6.0,8.4,0.00016,0.00021,35.8,37.0,21,0,.,.,9.37,0.00,0.00
15min,AgWx,beryljct,423,01MAR2020:06:30:00,34.5,12.71,34.3,34.1,36.3,38.2,34.1,53,60,48,0.396,20.6,21.5,20.0,5.941,6.5,185,12,11.4,0.00049,0.00085,35.7,36.9,21,0,.,.,9.37,0.00,0.00
15min,AgWx,beryljct,423,01MAR2020:06:45:00,34.4,12.71,37.8,36.7,35.0,36.7,34.0,57,60,53,0.393,21.2,21.8,20.9,7.322,5.6,207,7.5,8.4,0.00038,0.00066,35.7,36.9,21,0,.,.,9.37,0.00,0.00
15min,AgWx,beryljct,423,01MAR2020:07:00:00,34.7,12.71,36.7,37.1,36.8,37.1,36.4,53,54,51,0.382,21.2,21.7,20.6,4.889,5.7,208,6.3,7.5,0.00044,0.00077,35.6,36.9,21,1,.,.,9.37,0.00,0.00
15min,AgWx,beryljct,423,01MAR2020:07:15:00,34.8,12.73,35.7,34.4,35.9,37.0,34.4,54,58,51,0.391,20.8,21.3,20.5,6.094,5.9,207,5.0,6.8,0.00046,0.00078,35.6,36.9,21,8,.,.,9.37,0.00,0.00
15min,AgWx,beryljct,423,01MAR2020:07:30:00,34.7,12.79,36.8,36.3,35.4,36.4,34.4,56,58,54,0.394,21.3,21.5,21.2,7.41,6.5,195,7.1,8.2,0.00058,0.00091,35.5,36.9,21,42,.,.,9.37,0.00,0.00
15min,AgWx,beryljct,423,01MAR2020:07:45:00,35.4,12.82,38.6,38.1,37.5,38.1,36.4,53,54,51,0.401,22.0,22.3,21.4,9.25,8.0,190,6.5,9.6,0.00080,0.00124,35.5,36.8,21,72,.,.,9.37,0.00,0.00
15min,AgWx,beryljct,423,01MAR2020:08:00:00,36.3,12.81,39.3,39.1,38.8,39.3,38.1,49,51,47,0.389,21.3,21.7,20.8,10.48,10.3,182,5.2,12.1,0.00093,0.00150,35.4,36.8,21,53,.,.,9.36,0.00,0.00
15min,AgWx,beryljct,423,01MAR2020:08:15:00,37.2,12.84,40.8,40.7,39.5,40.7,38.9,47,49,44,0.375,20.9,21.2,20.3,12.43,11.8,185,6.2,15.8,0.00105,0.00171,35.4,36.8,21,54,.,.,9.36,0.00,0.00
15min,AgWx,beryljct,423,01MAR2020:08:30:00,38.2,12.89,41.3,41.6,40.5,41.7,40.1,45,46,42,0.378,20.9,21.3,20.3,11.03,11.1,187,4.8,13.8,0.00122,0.00191,35.4,36.8,21,98,.,.,9.36,0.00,0.00
15min,AgWx,beryljct,423,01MAR2020:08:45:00,39.6,12.99,43.0,42.7,41.8,42.7,40.9,43,45,39,0.367,20.7,21.2,19.7,16.42,12.1,182,7.5,18.3,0.00149,0.00227,35.3,36.8,21,152,.,.,9.36,0.00,0.00
15min,AgWx,beryljct,423,01MAR2020:09:00:00,41.0,13.08,42.7,42.7,42.8,43.1,42.6,40,41,38,0.382,20.0,20.8,19.4,10.65,13.0,180,11,17.1,0.00165,0.00253,35.2,36.8,21,156,.,.,9.36,0.00,0.00
15min,AgWx,beryljct,423,01MAR2020:09:15:00,42.2,13.23,43.6,43.5,43.1,43.5,42.6,41,42,40,0.390,21.1,21.7,20.7,11.88,11.2,188,5.8,14.5,0.00168,0.00247,35.2,36.7,21,200,.,.,9.36,0.00,0.00
15min,AgWx,beryljct,423,01MAR2020:09:30:00,43.2,13.32,44.3,44.1,43.7,44.2,43.5,41,43,40,0.394,21.6,22.4,21.0,13.5,11.6,183,10,17.4,0.00179,0.00263,35.2,36.7,21,223,.,.,9.36,0.00,0.00
15min,AgWx,beryljct,423,01MAR2020:09:45:00,44.2,13.45,44.8,44.6,44.5,44.7,44.2,40,41,39,0.396,21.6,22.2,21.0,14.95,16.0,191,7.4,21.5,0.00205,0.00309,35.1,36.7,21,235,.,.,9.36,0.00,0.00
15min,AgWx,beryljct,423,01MAR2020:10:00:00,44.9,13.48,45.0,44.8,44.7,44.8,44.6,40,41,39,0.400,21.7,22.3,21.2,15.61,16.0,191,8.3,21.5,0.00205,0.00310,35.1,36.7,21,228,.,.,9.36,0.00,0.00
15min,AgWx,beryljct,423,01MAR2020:10:15:00,45.6,13.78,45.6,45.3,45.1,45.4,44.8,39,41,38,0.398,21.7,22.7,20.9,15.59,15.4,190,8.2,21.5,0.00217,0.00322,35.1,36.7,21,267,.,.,9.36,0.00,0.00
15min,AgWx,beryljct,423,01MAR2020:10:30:00,46.2,13.66,45.8,45.7,45.5,45.8,45.3,38,39,37,0.400,21.5,22.1,20.9,14.8,15.1,194,8.7,19.5,0.00221,0.00328,35.0,36.6,21,264,.,.,9.35,0.00,0.00
15min,AgWx,beryljct,423,01MAR2020:10:45:00,46.6,13.6,45.8,45.6,45.6,45.7,45.5,38,38,37,0.389,21.2,21.6,20.7,18.48,17.2,185,8.4,21.7,0.00221,0.00336,35.0,36.6,21,230,.,.,9.35,0.00,0.00
15min,AgWx,beryljct,423,01MAR2020:11:00:00,46.9,13.62,46.2,45.8,45.8,46.1,45.5,38,39,37,0.401,21.3,22.3,20.7,13.64,15.8,190,9.8,21.0,0.00218,0.00329,35.0,36.6,21,231,.,.,9.35,0.00,0.00
15min,AgWx,beryljct,423,01MAR2020:11:15:00,47.1,13.62,46.3,46.1,46.0,46.2,45.8,37,39,36,0.410,21.4,22.3,20.6,11.99,14.3,196,11,21.1,0.00209,0.00315,35.0,36.6,21,212,.,.,9.35,0.00,0.00
15min,AgWx,beryljct,423,01MAR2020:11:30:00,47.3,14.49,46.9,46.4,46.2,46.4,45.9,37,39,36,0.396,21.3,22.4,20.5,13.07,14.1,199,6.7,20.2,0.00211,0.00317,35.0,36.5,21,214,.,.,9.35,0.00,0.00
15min,AgWx,beryljct,423,01MAR2020:11:45:00,47.5,14.5,46.3,46.3,46.3,46.6,46.1,36,37,35,0.374,20.8,21.9,19.6,19.51,17.1,201,8.4,22.9,0.00232,0.00351,35.1,36.5,21,240,.,.,9.35,0.00,0.00
15min,AgWx,beryljct,423,01MAR2020:12:00:00,47.8,14.43,46.6,46.5,46.4,46.5,46.3,36,37,35,0.394,20.7,21.4,20.2,19.97,17.8,204,9.1,23.9,0.00248,0.00372,35.1,36.5,21,286,.,.,9.35,0.00,0.00
15min,AgWx,beryljct,423,01MAR2020:12:15:00,48.1,14.5,47.5,47.2,46.8,47.3,46.4,36,37,35,0.392,21.1,22.3,20.3,15.76,15.3,201,9.5,19.8,0.00250,0.00366,35.2,36.5,21,317,.,.,9.35,0.00,0.00
15min,AgWx,beryljct,423,01MAR2020:12:30:00,49.1,14.41,49.0,48.7,48.1,48.8,47.1,35,37,34,0.409,21.8,22.7,20.7,16.02,15.7,192,11,22.3,0.00318,0.00443,35.3,36.5,21,531,.,.,9.34,0.00,0.00
15min,AgWx,beryljct,423,01MAR2020:12:45:00,50.4,14.43,48.3,48.1,49.0,49.8,47.9,34,35,33,0.401,22.1,23.6,21.3,16.64,17.4,191,13,22.3,0.00333,0.00470,35.4,36.5,21,532,.,.,9.34,0.00,0.00
15min,AgWx,beryljct,423,01MAR2020:13:00:00,50.7,14.52,48.2,48.6,48.3,48.9,47.6,35,37,34,0.412,22.1,23.5,21.0,18.59,17.7,193,14,22.8,0.00306,0.00439,35.5,36.4,21,469,.,.,9.34,0.00,0.00
15min,AgWx,beryljct,423,01MAR2020:13:15:00,50.7,14.42,47.9,47.6,47.8,48.5,47.3,36,36,34,0.402,21.8,22.7,21.1,20.3,18.5,199,9.6,24.8,0.00283,0.00415,35.6,36.4,21,385,.,.,9.35,0.01,0.00
15min,AgWx,beryljct,423,01MAR2020:13:30:00,50.5,14.43,47.9,47.5,47.6,48.1,47.2,36,37,35,0.403,22.0,23.0,21.4,20.98,18.1,199,8.8,23.5,0.00281,0.00411,35.8,36.4,21,405,.,.,9.35,0.00,0.00
15min,AgWx,beryljct,423,01MAR2020:13:45:00,50.8,14.42,50.2,49.1,48.4,49.1,47.6,36,37,34,0.423,22.4,23.3,21.4,18.41,18.3,197,10,25.6,0.00340,0.00477,35.9,36.4,21,608,.,.,9.34,0.00,0.00
15min,AgWx,beryljct,423,01MAR2020:14:00:00,51.4,13.99,49.9,49.2,48.9,49.3,48.6,35,36,34,0.423,22.5,23.1,21.9,15.45,19.1,197,9.3,26.3,0.00348,0.00491,36.1,36.4,21,624,.,.,9.34,0.00,0.00
15min,AgWx,beryljct,423,01MAR2020:14:15:00,51.8,13.98,50.1,50.0,48.9,50.0,48.1,36,37,34,0.432,22.8,23.9,21.3,19.66,17.0,208,10,24.1,0.00352,0.00486,36.3,36.4,21,651,.,.,9.34,0.00,0.00
15min,AgWx,beryljct,423,01MAR2020:14:30:00,53.0,13.97,50.2,50.0,50.0,50.6,49.5,34,35,33,0.418,22.7,24.0,21.6,16.95,17.5,182,9.6,23.6,0.00398,0.00543,36.5,36.4,21,739,.,.,9.34,0.00,0.00
15min,AgWx,beryljct,423,01MAR2020:14:45:00,53.9,13.94,49.6,49.8,50.1,50.7,49.6,34,35,33,0.413,22.9,24.3,21.9,16.59,15.5,187,13,21.7,0.00371,0.00506,36.7,36.4,21,668,.,.,9.34,0.00,0.00
15min,AgWx,beryljct,423,01MAR2020:15:00:00,54.4,13.94,48.4,49.6,50.0,50.9,49.4,34,36,33,0.409,22.9,24.4,22.0,16.75,16.8,186,11,21.7,0.00364,0.00504,36.9,36.4,21,651,.,.,9.34,0.00,0.00
15min,AgWx,beryljct,423,01MAR2020:15:15:00,54.5,13.94,50.1,50.6,49.7,50.6,49.0,35,36,34,0.441,23.0,24.1,21.9,14.12,15.9,194,14,21.1,0.00346,0.00480,37.1,36.5,21,617,.,.,9.34,0.00,0.00
15min,AgWx,beryljct,423,01MAR2020:15:30:00,54.9,13.89,49.3,50.7,50.4,51.2,49.5,34,36,33,0.420,23.4,24.9,22.0,19.95,14.2,188,16,20.8,0.00357,0.00485,37.3,36.5,21,632,.,.,9.34,0.00,0.00
15min,AgWx,beryljct,423,01MAR2020:15:45:00,54.3,13.96,48.4,48.8,49.0,50.5,48.3,35,36,33,0.417,22.6,23.6,22.0,12.69,14.8,202,17,21.0,0.00227,0.00348,37.6,36.5,21,299,.,.,9.34,0.00,0.00
15min,AgWx,beryljct,423,01MAR2020:16:00:00,53.6,13.98,48.7,48.9,49.1,49.9,48.6,36,37,34,0.422,23.0,23.7,21.9,14.36,12.3,188,17,20.9,0.00236,0.00344,37.9,36.5,21,368,.,.,9.34,0.01,0.00
15min,AgWx,beryljct,423,01MAR2020:16:15:00,52.7,13.99,48.2,48.1,48.2,48.9,47.8,36,37,35,0.428,22.6,23.4,21.7,11.05,12.3,191,14,18.5,0.00169,0.00271,38.1,36.6,21,175,.,.,9.34,0.00,0.00
15min,AgWx,beryljct,423,01MAR2020:16:30:00,51.8,13.99,49.5,49.5,48.5,49.5,48.1,36,37,35,0.438,22.4,23.9,21.8,9.25,9.4,183,11,14.5,0.00175,0.00263,38.3,36.6,21,266,.,.,9.34,0.00,0.00
15min,AgWx,beryljct,423,01MAR2020:16:45:00,51.5,13.4,47.7,47.8,48.4,49.5,47.8,36,37,34,0.402,22.6,23.8,21.7,6.292,8.9,206,30,16.9,0.00108,0.00188,38.5,36.6,21,110,.,.,9.34,0.00,0.00
15min,AgWx,beryljct,423,01MAR2020:17:00:00,49.1,13.19,38.8,38.9,41.2,47.8,38.9,63,71,36,0.571,29.4,30.4,22.1,13.2,13.8,24,23,20.0,0.00073,0.00127,38.6,36.7,21,29,.,.,9.35,0.01,0.00
15min,AgWx,beryljct,423,01MAR2020:17:15:00,45.6,13.1,35.4,35.5,37.1,38.8,35.5,76,79,71,0.556,30.1,30.6,29.6,12.61,17.3,12,16,23.5,0.00044,0.00079,38.8,36.7,21,14,.,.,9.35,0.01,0.00
15min,AgWx,beryljct,423,01MAR2020:17:30:00,42.5,13.08,34.0,34.1,34.8,35.5,34.1,81,84,79,0.554,29.7,29.8,29.6,11.05,16.4,12,9.5,20.2,0.00012,0.00035,38.9,36.8,21,15,.,.,9.36,0.00,0.00
15min,AgWx,beryljct,423,01MAR2020:17:45:00,40.2,13.07,32.8,32.8,33.4,34.1,32.8,87,88,84,0.555,29.8,30.0,29.6,14.34,14.6,4.5,8.5,17.7,0.00004,0.00005,39.0,36.8,21,18,.,.,9.36,0.00,0.00
15min,AgWx,beryljct,423,01MAR2020:18:00:00,38.4,13.04,32.1,31.9,32.3,32.7,31.9,88,89,88,0.543,29.3,29.6,29.0,15.19,15.7,5.6,14,21.5,0.00003,0.00004,39.0,36.9,21,11,.,.,9.36,0.00,0.00
15min,AgWx,beryljct,423,01MAR2020:18:15:00,37.2,13.01,31.7,31.6,31.7,32.0,31.5,90,91,89,0.543,29.2,29.3,29.1,12.14,13.7,12,9.8,17.9,0.00001,0.00001,39.0,36.9,21,6,.,.,9.36,0.00,0.00
15min,AgWx,beryljct,423,01MAR2020:18:30:00,36.3,12.99,31.4,31.2,31.4,31.6,31.2,91,91,91,0.537,29.0,29.2,28.8,11.05,10.6,11,10,14.6,-0.00002,-0.00001,38.9,37.0,21,1,.,.,9.36,0.00,0.00
15min,AgWx,beryljct,423,01MAR2020:18:45:00,35.7,12.99,30.8,30.7,30.9,31.2,30.7,91,92,91,0.534,28.7,28.9,28.6,10.06,9.3,16,10,13.1,-0.00003,-0.00002,38.9,37.0,21,0,.,.,9.37,0.01,0.00
15min,AgWx,beryljct,423,01MAR2020:19:00:00,35.2,12.97,30.5,30.3,30.5,30.7,30.3,93,94,92,0.533,28.7,28.8,28.6,7.344,9.4,15,11,13.6,-0.00004,-0.00003,38.8,37.1,21,0,.,.,9.38,0.00,0.00
15min,AgWx,beryljct,423,01MAR2020:19:15:00,34.7,12.95,30.3,30.0,30.2,30.3,30.0,94,94,94,0.528,28.6,28.7,28.4,9.27,9.6,8.9,11,13.0,-0.00004,-0.00004,38.7,37.2,21,0,.,.,9.38,0.01,0.00
15min,AgWx,beryljct,423,01MAR2020:19:30:00,34.4,12.95,30.2,29.9,29.9,30.1,29.9,94,94,94,0.526,28.4,28.6,28.3,8.77,9.4,17,12,14.3,-0.00004,-0.00004,38.6,37.2,21,0,.,.,9.38,0.00,0.00
15min,AgWx,beryljct,423,01MAR2020:19:45:00,34.1,12.93,30.2,29.9,29.9,30.0,29.8,93,94,92,0.515,28.1,28.3,27.8,11.88,8.7,23,14,12.5,-0.00004,-0.00004,38.5,37.2,21,0,.,.,9.38,0.00,0.00
15min,AgWx,beryljct,423,01MAR2020:20:00:00,33.8,12.93,30.3,29.9,29.9,30.0,29.8,91,92,90,0.507,27.6,27.8,27.4,13.72,9.2,44,8.8,13.7,-0.00003,-0.00002,38.4,37.3,21,0,.,.,9.38,0.00,0.00
15min,AgWx,beryljct,423,01MAR2020:20:15:00,33.6,12.93,30.5,30.1,30.0,30.2,29.9,89,90,88,0.496,27.2,27.5,26.9,11.18,9.9,38,6.5,13.8,-0.00001,-0.00001,38.3,37.3,21,0,.,.,9.38,0.00,0.00
15min,AgWx,beryljct,423,01MAR2020:20:30:00,33.4,12.91,30.2,29.9,30.1,30.3,29.9,87,88,87,0.496,26.7,26.9,26.6,10.04,10.1,40,8.2,15.3,0.00000,0.00001,38.3,37.4,21,0,.,.,9.39,0.00,0.00
15min,AgWx,beryljct,423,01MAR2020:20:45:00,33.3,12.9,29.9,29.6,29.7,29.9,29.5,89,90,89,0.495,26.9,27.0,26.8,6.818,9.1,38,6.7,12.4,-0.00002,-0.00001,38.2,37.4,21,0,.,.,9.39,0.00,0.00
15min,AgWx,beryljct,423,01MAR2020:21:00:00,33.1,12.89,29.9,29.5,29.5,29.7,29.5,89,89,88,0.488,26.6,26.8,26.5,7.958,9.4,44,7.1,12.8,-0.00001,-0.00001,38.1,37.4,21,0,.,.,9.39,0.01,0.00
15min,AgWx,beryljct,423,01MAR2020:21:15:00,32.9,12.89,30.0,29.6,29.6,29.7,29.5,87,88,86,0.477,26.2,26.6,25.9,9.8,9.0,41,7.0,12.4,-0.00001,-0.00000,38.0,37.4,21,0,.,.,9.39,0.00,0.00
15min,AgWx,beryljct,423,01MAR2020:21:30:00,32.7,12.87,29.9,29.6,29.7,29.8,29.6,85,86,85,0.471,25.8,26.0,25.6,9.25,10.3,41,6.2,14.3,0.00001,0.00002,37.9,37.4,21,0,.,.,9.39,0.00,0.00
15min,AgWx,beryljct,423,01MAR2020:21:45:00,32.6,12.87,29.9,29.5,29.5,29.7,29.4,86,87,85,0.477,25.8,26.0,25.6,11.44,10.1,47,7.3,13.0,0.00001,0.00002,37.9,37.4,21,0,.,.,9.39,0.00,0.00
15min,AgWx,beryljct,423,01MAR2020:22:00:00,32.4,12.86,29.6,29.4,29.5,29.5,29.4,86,87,86,0.474,25.9,26.0,25.7,8.44,9.8,47,6.6,12.8,0.00000,0.00001,37.8,37.5,21,0,.,.,9.39,0.00,0.00
15min,AgWx,beryljct,423,01MAR2020:22:15:00,32.3,12.86,29.6,29.3,29.3,29.4,29.3,87,87,86,0.473,25.9,26.0,25.7,10.46,10.8,42,6.9,14.6,0.00001,0.00001,37.7,37.5,21,0,.,.,9.39,0.00,0.00
15min,AgWx,beryljct,423,01MAR2020:22:30:00,32.2,12.85,29.6,29.2,29.3,29.4,29.2,86,87,86,0.473,25.8,25.9,25.7,12.12,11.1,34,7.1,14.5,0.00001,0.00002,37.6,37.5,21,0,.,.,9.39,0.00,0.00
15min,AgWx,beryljct,423,01MAR2020:22:45:00,32.1,12.83,29.7,29.3,29.2,29.3,29.2,87,87,86,0.472,25.7,25.9,25.7,11.71,10.7,29,7.6,14.7,0.00001,0.00002,37.6,37.5,21,0,.,.,9.39,0.00,0.00
15min,AgWx,beryljct,423,01MAR2020:23:00:00,31.9,12.82,29.8,29.3,29.3,29.4,29.3,86,86,86,0.471,25.7,25.8,25.6,13.7,10.5,27,8.4,14.8,0.00001,0.00002,37.5,37.5,21,0,.,.,9.39,0.00,0.00
15min,AgWx,beryljct,423,01MAR2020:23:15:00,31.9,12.81,29.9,29.5,29.4,29.5,29.3,86,86,86,0.471,25.6,25.7,25.6,9.62,9.6,21,9.7,13.7,0.00000,0.00001,37.4,37.5,21,0,.,.,9.39,0.00,0.00
15min,AgWx,beryljct,423,01MAR2020:23:30:00,31.9,12.82,29.8,29.6,29.5,29.6,29.5,85,86,84,0.468,25.5,25.6,25.4,9.01,9.5,14,9.9,12.1,0.00001,0.00002,37.4,37.5,21,0,.,.,9.39,0.00,0.00
15min,AgWx,bigpiney,439,01MAR2020:00:00:00,16.0,12.67,19.3,18.1,15.4,18.1,13.3,75,79,70,0.266,9.0,12.4,5.4,4.121,5.7,255,19,7.3,0.00002,0.00003,29.4,30.4,11,0,0,0.0,5.83,0.00,0.00
15min,AgWx,bigpiney,439,01MAR2020:00:15:00,15.6,12.66,16.5,16.3,17.7,18.8,16.3,75,77,73,0.245,11.1,12.3,10.0,2.083,2.9,275,10,4.0,-0.00001,-0.00001,29.4,30.4,11,0,0,0.0,5.83,0.00,0.00
15min,AgWx,bigpiney,439,01MAR2020:00:30:00,15.5,12.65,8.9,8.9,13.6,16.6,8.9,76,78,70,0.177,7.4,11.0,2.6,5.656,3.9,238,23,5.7,0.00000,0.00001,29.4,30.3,11,0,0,0.0,5.83,0.00,0.00
15min,AgWx,bigpiney,439,01MAR2020:00:45:00,15.1,12.64,10.6,10.8,9.7,11.9,8.8,81,85,78,0.198,4.9,8.1,3.3,3.836,5.4,225,9.7,6.3,0.00001,0.00001,29.4,30.4,11,0,0,0.0,5.83,0.00,0.00
15min,AgWx,bigpiney,439,01MAR2020:01:00:00,14.6,12.63,12.1,11.8,11.0,11.9,9.5,81,83,79,0.207,6.2,7.4,4.6,3.442,3.0,337,26,4.8,-0.00002,-0.00002,29.4,30.4,11,0,0,0.0,5.83,0.00,0.00
15min,AgWx,bigpiney,439,01MAR2020:01:15:00,14.4,12.62,12.9,12.6,12.3,12.6,11.7,80,80,78,0.213,7.1,7.6,6.3,2.411,3.5,337,11,4.6,-0.00001,-0.00001,29.4,30.4,11,0,0,0.0,5.83,0.00,0.00
15min,AgWx,bigpiney,439,01MAR2020:01:30:00,14.2,12.6,13.2,12.2,11.9,12.6,11.2,80,83,78,0.218,7.0,7.9,5.8,2.455,1.5,285,24,3.0,-0.00005,-0.00006,29.5,30.4,11,0,0,0.0,5.83,0.00,0.00
15min,AgWx,bigpiney,439,01MAR2020:01:45:00,14.0,12.6,14.7,14.4,13.1,14.4,12.3,83,84,81,0.241,8.8,10.2,8.0,1.995,2.0,277,17,3.5,-0.00004,-0.00005,29.5,30.4,11,0,0,0.0,5.83,0.00,0.00
15min,AgWx,bigpiney,439,01MAR2020:02:00:00,14.0,12.59,16.5,16.2,15.3,16.3,14.4,80,83,78,0.244,10.2,10.7,9.7,2.433,2.9,306,12,4.0,-0.00002,-0.00002,29.5,30.4,11,0,0,0.0,5.83,0.00,0.00
15min,AgWx,bigpiney,439,01MAR2020:02:15:00,14.3,12.59,16.8,16.2,16.0,16.6,15.1,78,80,77,0.249,10.3,11.0,9.2,1.491,0.6,269,29,2.5,-0.00008,-0.00011,29.5,30.4,11,0,0,0.0,5.83,0.00,0.00
15min,AgWx,bigpiney,439,01MAR2020:02:30:00,14.7,12.57,16.7,16.4,15.3,16.4,13.6,80,83,77,0.251,10.1,11.8,8.5,0,2.1,184,22,3.8,-0.00004,-0.00004,29.5,30.5,11,0,0,0.0,5.83,0.00,0.00
15min,AgWx,bigpiney,439,01MAR2020:02:45:00,15.1,12.56,12.8,14.1,14.2,16.4,12.6,80,83,76,0.229,9.1,10.9,7.7,3.836,3.3,214,11,5.3,-0.00001,-0.00001,29.5,30.4,11,0,0,0.0,5.83,0.00,0.00
15min,AgWx,bigpiney,439,01MAR2020:03:00:00,15.3,12.56,18.3,14.8,13.2,14.8,12.4,82,84,78,0.246,8.5,10.5,7.1,1.885,4.7,222,13,6.6,-0.00000,0.00000,29.5,30.4,11,0,0,0.0,5.83,0.00,0.00
15min,AgWx,bigpiney,439,01MAR2020:03:15:00,15.8,12.55,19.3,18.2,16.4,18.2,14.9,80,85,76,0.268,11.3,13.0,9.5,0.592,2.6,235,9.4,4.8,-0.00003,-0.00003,29.5,30.4,11,0,0,0.0,5.83,0.00,0.00
15min,AgWx,bigpiney,439,01MAR2020:03:30:00,16.4,12.55,16.6,16.6,17.4,18.6,16.1,79,81,75,0.254,11.9,13.2,10.6,5.086,2.9,202,10,5.1,-0.00002,-0.00002,29.5,30.4,11,0,0,0.0,5.83,0.00,0.00
15min,AgWx,bigpiney,439,01MAR2020:03:45:00,16.8,12.54,15.5,15.2,15.8,17.0,15.1,81,82,79,0.248,11.0,12.0,10.4,5.656,5.4,206,4.4,6.6,0.00001,0.00001,29.5,30.4,11,0,0,0.0,5.83,0.00,0.00
15min,AgWx,bigpiney,439,01MAR2020:04:00:00,16.7,12.53,15.9,15.0,15.1,15.5,14.6,81,82,81,0.242,10.4,11.0,9.8,5.261,5.4,209,3.0,6.8,0.00001,0.00001,29.5,30.3,11,0,0,0.0,5.83,0.00,0.00
15min,AgWx,bigpiney,439,01MAR2020:04:15:00,16.3,12.53,14.9,14.6,14.9,17.4,13.5,81,86,77,0.239,9.9,13.7,7.9,4.626,5.5,222,14,7.4,0.00001,0.00001,29.5,30.4,11,0,0,0.0,5.83,0.00,0.00
15min,AgWx,bigpiney,439,01MAR2020:04:30:00,15.7,12.52,16.7,16.5,15.4,17.3,13.8,80,84,76,0.261,10.5,12.8,7.9,2.894,5.2,247,11,8.0,0.00001,0.00001,29.5,30.5,11,0,0,0.0,5.83,0.00,0.00
15min,AgWx,bigpiney,439,01MAR2020:04:45:00,15.6,12.52,19.0,18.1,17.2,18.5,15.6,85,87,81,0.294,13.4,15.2,11.0,3.091,3.9,276,12,5.5,-0.00002,-0.00002,29.5,30.5,11,0,0,0.0,5.83,0.00,0.00
15min,AgWx,bigpiney,439,01MAR2020:05:00:00,16.0,12.51,18.6,18.4,18.4,19.0,18.1,87,88,85,0.302,15.1,15.9,14.4,2.389,3.4,272,9.3,4.3,-0.00003,-0.00003,29.5,30.4,11,0,0,0.0,5.83,0.00,0.00
15min,AgWx,bigpiney,439,01MAR2020:05:15:00,16.8,12.5,19.2,19.1,18.7,19.1,18.3,88,89,87,0.316,15.7,16.2,15.1,2.565,4.0,277,6.8,5.0,-0.00003,-0.00003,29.5,30.4,11,0,0,0.0,5.83,0.00,0.00
15min,AgWx,bigpiney,439,01MAR2020:05:30:00,17.9,12.51,21.2,20.9,20.0,20.9,18.9,90,92,88,0.353,17.6,18.9,16.0,3.091,2.6,292,14,4.1,-0.00005,-0.00006,29.5,30.4,11,0,0,0.0,5.83,0.00,0.00
15min,AgWx,bigpiney,439,01MAR2020:05:45:00,18.9,12.5,21.5,21.1,21.1,21.4,20.9,92,92,92,0.358,19.2,19.5,18.9,0,1.4,358,34,4.6,-0.00008,-0.00010,29.5,30.4,11,0,0,0.0,5.83,0.00,0.00
15min,AgWx,bigpiney,439,01MAR2020:06:00:00,19.8,12.5,19.8,19.8,20.8,21.2,19.8,92,93,91,0.337,18.9,19.3,17.7,1.535,0.6,79,20,1.9,-0.00010,-0.00015,29.5,30.4,11,0,0,0.0,5.83,0.00,0.00
15min,AgWx,bigpiney,439,01MAR2020:06:15:00,20.4,12.49,18.9,18.4,18.6,19.7,18.2,91,92,90,0.316,16.4,17.7,15.9,4.297,2.6,223,34,4.4,-0.00005,-0.00006,29.5,30.4,11,0,0,0.0,5.83,0.00,0.00
15min,AgWx,bigpiney,439,01MAR2020:06:30:00,20.6,12.49,19.5,18.8,18.5,18.8,18.4,91,92,91,0.323,16.4,16.7,16.2,2.258,2.8,225,12,4.5,-0.00005,-0.00006,29.5,30.4,11,0,0,0.0,5.83,0.00,0.00
15min,AgWx,bigpiney,439,01MAR2020:06:45:00,20.7,12.49,20.9,20.9,20.0,20.9,18.8,93,93,92,0.358,18.3,19.1,16.8,2.565,1.6,244,36,2.7,-0.00007,-0.00009,29.5,30.4,11,0,0,0.0,5.83,0.00,0.00
15min,AgWx,bigpiney,439,01MAR2020:07:00:00,20.7,12.5,20.0,18.9,19.5,21.0,18.0,92,93,90,0.329,17.5,19.3,15.7,3.025,2.4,212,17,3.6,-0.00005,-0.00006,29.5,30.4,11,3,0,0.0,5.83,0.00,0.00
15min,AgWx,bigpiney,439,01MAR2020:07:15:00,20.5,12.52,20.8,20.6,20.1,20.6,18.9,93,94,92,0.358,18.5,19.2,17.3,2.894,2.8,235,5.3,4.0,-0.00017,-0.00016,29.5,30.4,11,13,0,0.0,5.83,0.00,0.00
15min,AgWx,bigpiney,439,01MAR2020:07:30:00,20.2,12.59,16.9,17.2,19.1,20.8,17.2,92,94,89,0.301,17.1,19.2,14.9,4.406,2.3,211,19,4.4,-0.00010,-0.00009,29.5,30.4,11,29,0,0.0,5.83,0.00,0.00
15min,AgWx,bigpiney,439,01MAR2020:07:45:00,19.7,12.73,13.5,13.6,15.2,17.2,13.6,90,92,89,0.252,12.8,15.1,11.1,4.472,5.9,216,11,6.7,0.00003,0.00006,29.5,30.4,11,86,0,0.0,5.83,0.00,0.00
15min,AgWx,bigpiney,439,01MAR2020:08:00:00,18.9,12.71,15.4,15.5,14.0,15.6,12.9,92,93,89,0.284,12.0,14.0,10.3,5.787,5.8,220,7.9,6.8,0.00011,0.00014,29.5,30.4,11,49,0,0.0,5.83,0.00,0.00
15min,AgWx,bigpiney,439,01MAR2020:08:15:00,18.0,12.82,15.8,15.1,14.6,15.8,13.1,92,94,90,0.280,12.6,14.3,10.6,6.883,5.9,226,9.9,7.3,0.00015,0.00019,29.4,30.5,11,76,0,0.0,5.83,0.00,0.00